GW3421 Weather Reports


time (UTC)temp
C
wind
direction
speed
KPH
gust
KPH
rain 1hr
cm
rain 24hr
cm
rain mn
cm
humidity
%
barometer
mb
20260906103716 18 111 0.0 0.0 0.00 0.00 0.00 99 1015.6
20260906103211 18 139 0.0 0.0 0.00 0.00 0.00 99 1015.6
20260906102706 18 136 0.0 0.0 0.00 0.00 0.00 99 1015.6
20260906102205 18 165 1.6 1.6 0.00 0.00 0.00 99 1015.6
20260906101700 18 142 0.0 0.0 0.00 0.00 0.00 99 1015.6
20260906101155 18 145 0.0 0.0 0.00 0.00 0.00 99 1015.6
20260906100650 18 142 0.0 0.0 0.00 0.00 0.00 99 1015.6
20260906100145 19 149 0.0 0.0 0.00 0.00 0.00 99 1015.5
20260906095640 19 136 0.0 0.0 0.00 0.00 0.00 99 1015.6
20260906095135 19 135 0.0 0.0 0.00 0.00 0.00 99 1015.6
20260906094634 18 135 0.0 0.0 0.00 0.00 0.00 99 1015.9
20260906094130 19 136 0.0 0.0 0.00 0.00 0.00 99 1015.8
20260906093626 19 134 0.0 0.0 0.00 0.00 0.00 99 1015.5
20260906093120 18 142 0.0 0.0 0.00 0.00 0.00 99 1015.6
20260906092615 18 147 0.0 0.0 0.00 0.00 0.00 99 1015.6
20260906092110 18 142 0.0 0.0 0.00 0.00 0.00 99 1015.5
20260906091606 18 137 0.0 0.0 0.00 0.00 0.00 99 1015.4
20260906091103 18 141 0.0 0.0 0.00 0.00 0.00 99 1015.4
20260906090603 18 118 0.0 0.0 0.00 0.00 0.00 99 1015.6
20260906085602 18 132 0.0 0.0 0.00 0.00 0.00 99 1015.3
20260906085056 18 132 0.0 0.0 0.00 0.00 0.00 99 1015.4
20260906084551 18 132 0.0 0.0 0.00 0.00 0.00 99 1015.4
20260906084050 19 141 0.0 0.0 0.00 0.00 0.00 99 1015.6
20260906083546 18 151 0.0 0.0 0.00 0.00 0.00 99 1015.7
20260906083045 18 145 0.0 0.0 0.00 0.00 0.00 99 1015.6
20260906082540 18 145 0.0 0.0 0.00 0.00 0.00 99 1015.8
20260906082037 18 145 0.0 0.0 0.00 0.00 0.00 99 1015.6
20260906081532 18 146 0.0 0.0 0.00 0.00 0.00 99 1015.6
20260906081027 18 146 0.0 0.0 0.00 0.00 0.00 99 1015.5
20260906080524 18 145 0.0 0.0 0.00 0.00 0.00 99 1015.6
20260906080019 18 166 0.0 0.0 0.00 0.00 0.00 99 1015.7
20260906075513 18 135 0.0 0.0 0.00 0.00 0.00 99 1015.4
20260906075009 18 149 0.0 1.6 0.00 0.00 0.00 99 1015.3
20260906074503 18 132 0.0 0.0 0.00 0.00 0.00 99 1015.5
20260906074002 18 114 0.0 0.0 0.00 0.00 0.00 99 1015.3
20260906073456 18 138 0.0 0.0 0.00 0.00 0.00 99 1015.2
20260906072953 18 138 0.0 0.0 0.00 0.00 0.00 99 1015.2
20260906072448 18 138 0.0 0.0 0.00 0.00 0.00 99 1015.4
20260906071944 18 138 0.0 0.0 0.00 0.00 0.00 99 1015.4
20260906071439 18 138 0.0 0.0 0.00 0.00 0.00 99 1015.3
20260906070935 18 138 0.0 0.0 0.00 0.00 0.00 99 1015.6
20260906070431 18 138 0.0 0.0 0.00 0.00 0.00 99 1015.6
20260906065926 18 138 0.0 0.0 0.00 0.00 0.00 99 1015.5
20260906065421 18 137 0.0 0.0 0.00 0.00 0.00 99 1015.4
20260906064916 18 138 0.0 0.0 0.00 0.00 0.00 99 1015.2
20260906064412 18 138 0.0 0.0 0.00 0.00 0.00 99 1015.4
20260906063907 19 140 0.0 0.0 0.00 0.00 0.00 99 1015.3
20260906063402 19 141 0.0 0.0 0.00 0.00 0.00 99 1015.5
20260906062857 18 129 0.0 0.0 0.00 0.00 0.00 99 1015.5
20260906062356 18 128 0.0 0.0 0.00 0.00 0.00 99 1015.5
20260906061852 19 136 0.0 0.0 0.00 0.00 0.00 99 1015.4
20260906061348 19 87 0.0 0.0 0.00 0.00 0.00 99 1015.5
20260906060843 19 134 0.0 0.0 0.00 0.00 0.00 99 1015.5
20260906060340 19 147 0.0 0.0 0.00 0.00 0.00 99 1015.7
20260906055836 19 140 0.0 0.0 0.00 0.00 0.00 99 1015.7
20260906055332 18 100 0.0 0.0 0.00 0.00 0.00 99 1015.7
20260906054827 19 81 0.0 0.0 0.00 0.00 0.00 99 1015.8
20260906054321 19 114 0.0 0.0 0.00 0.00 0.00 99 1016.2
20260906053818 19 136 1.6 1.6 0.00 0.00 0.00 99 1016.3
20260906053314 19 139 1.6 1.6 0.00 0.00 0.00 99 1016.4
20260906052809 19 141 0.0 1.6 0.00 0.00 0.00 99 1016.4
20260906052306 19 141 0.0 0.0 0.00 0.00 0.00 99 1016.2
20260906051802 19 141 0.0 0.0 0.00 0.00 0.00 99 1016.3
20260906051301 19 135 0.0 0.0 0.00 0.00 0.00 99 1016.4
20260906050756 19 124 0.0 0.0 0.00 0.00 0.00 99 1016.5
20260906050252 19 151 0.0 0.0 0.00 0.00 0.00 99 1016.4
20260906045750 19 107 0.0 0.0 0.00 0.00 0.00 99 1016.5
20260906045245 19 114 0.0 0.0 0.00 0.00 0.00 99 1016.5
20260906044741 19 128 0.0 0.0 0.00 0.00 0.00 99 1016.5
20260906044236 20 125 0.0 0.0 0.00 0.00 0.00 99 1016.3
20260906043732 20 121 0.0 0.0 0.00 0.00 0.00 99 1016.6
20260906043228 20 126 0.0 0.0 0.00 0.00 0.00 99 1016.6
20260906042727 20 131 0.0 0.0 0.00 0.00 0.00 99 1016.5
20260906042226 19 130 0.0 0.0 0.00 0.00 0.00 99 1016.5
20260906041722 19 90 0.0 0.0 0.00 0.00 0.00 99 1016.5
20260906041217 19 96 0.0 0.0 0.00 0.00 0.00 99 1016.3
20260906040713 20 106 0.0 0.0 0.00 0.00 0.00 99 1016.3
20260906040208 20 119 0.0 0.0 0.00 0.00 0.00 99 1016.5
20260906035703 20 107 0.0 0.0 0.00 1.55 1.55 99 1016.4
20260906035158 20 92 0.0 0.0 0.00 1.55 1.55 99 1016.6
20260906034653 20 118 0.0 0.0 0.00 1.55 1.55 99 1016.6
20260906034148 20 168 1.6 1.6 0.00 1.55 1.55 99 1016.7
20260906033643 20 200 0.0 1.6 0.00 1.55 1.55 99 1016.6
20260906033138 20 157 0.0 1.6 0.00 1.55 1.55 99 1016.6
20260906032635 20 128 0.0 1.6 0.00 1.55 1.55 99 1016.5
20260906032134 20 98 0.0 0.0 0.00 1.55 1.55 99 1016.7
20260906031630 20 106 1.6 1.6 0.00 1.55 1.55 99 1016.3
20260906031125 20 172 0.0 1.6 0.00 1.55 1.55 99 1016.3
20260906030624 20 143 1.6 1.6 0.00 1.55 1.55 99 1016.7
20260906030120 20 119 0.0 1.6 0.00 1.55 1.55 99 1016.7
20260906025619 20 148 0.0 1.6 0.00 1.55 1.55 99 1016.8
20260906025118 20 172 1.6 3.2 0.00 1.55 1.55 99 1016.8
20260906024613 20 114 0.0 0.0 0.00 1.55 1.55 99 1017.0
20260906024107 20 171 0.0 0.0 0.00 1.55 1.55 99 1016.8
20260906023603 20 84 0.0 0.0 0.00 1.55 1.55 99 1016.7
20260906023058 20 139 0.0 0.0 0.00 1.55 1.55 99 1016.6
20260906022553 20 160 0.0 0.0 0.00 1.55 1.55 99 1016.4
20260906022048 20 140 0.0 0.0 0.00 1.55 1.55 99 1016.6
20260906021544 20 172 1.6 1.6 0.00 1.55 1.55 99 1016.3
20260906021043 20 104 1.6 1.6 0.00 1.55 1.55 99 1016.3
20260906020543 20 139 0.0 0.0 0.00 1.55 1.55 99 1016.2
20260906020042 20 139 0.0 0.0 0.00 1.55 1.55 99 1015.9
20260906015542 20 132 0.0 0.0 0.00 1.55 1.55 99 1016.3
20260906015041 20 154 0.0 0.0 0.00 1.55 1.55 99 1015.8
20260906014536 20 133 0.0 0.0 0.00 1.55 1.55 99 1015.9
20260906014032 20 177 3.2 3.2 0.00 1.55 1.55 99 1015.9
20260906013527 21 152 0.0 0.0 0.00 1.55 1.55 99 1016.3
20260906013023 21 145 1.6 1.6 0.00 1.55 1.55 99 1015.9
20260906012518 21 99 0.0 0.0 0.00 1.55 1.55 99 1016.0
20260906012017 21 309 1.6 1.6 0.00 1.55 1.55 99 1016.3
20260906011514 21 184 3.2 3.2 0.00 1.55 1.55 99 1015.8
20260906011013 21 172 0.0 0.0 0.00 1.55 1.55 99 1015.7
20260906010508 21 137 0.0 1.6 0.00 1.55 1.55 99 1015.4
20260906010005 21 134 0.0 1.6 0.00 1.55 1.55 99 1015.4
20260906005504 21 118 0.0 0.0 0.00 1.55 1.55 99 1015.5
20260906005002 21 80 0.0 0.0 0.00 1.55 1.55 99 1015.8
20260906004457 21 149 0.0 0.0 0.00 1.55 1.55 99 1015.7
20260906003952 21 176 1.6 3.2 0.00 1.55 1.55 99 1015.6
20260906003448 21 183 3.2 3.2 0.00 1.55 1.55 99 1015.3
20260906002943 21 151 3.2 3.2 0.00 1.55 1.55 99 1015.4
20260906002443 21 172 1.6 3.2 0.00 1.55 1.55 99 1015.6
20260906001938 21 188 1.6 3.2 0.00 1.55 1.55 99 1015.3
20260906001434 21 155 1.6 3.2 0.00 1.55 1.55 99 1015.7
20260906000929 21 142 0.0 0.0 0.00 1.55 1.55 99 1015.3
20260906000425 21 116 0.0 0.0 0.00 1.55 1.55 99 1015.6
20260905235919 22 180 3.2 3.2 0.00 1.55 1.55 99 1015.6
20260905235413 22 138 0.0 0.0 0.00 1.55 1.55 99 1015.6
20260905234908 22 161 1.6 3.2 0.00 1.55 1.55 99 1015.5
20260905234403 22 152 0.0 0.0 0.00 1.55 1.55 99 1015.3
20260905233858 22 143 1.6 3.2 0.00 1.55 1.55 99 1015.5
20260905233353 23 179 1.6 3.2 0.00 1.55 1.55 99 1015.6
20260905232852 23 126 1.6 1.6 0.00 1.55 1.55 99 1015.7
20260905232349 23 128 0.0 0.0 0.00 1.55 1.55 99 1015.6
20260905231844 23 132 0.0 0.0 0.00 1.55 1.55 99 1015.4
20260905231339 23 124 0.0 0.0 0.00 1.55 1.55 99 1015.4
20260905230836 22 131 0.0 0.0 0.00 1.55 1.55 99 1015.3
20260905230333 22 122 0.0 0.0 0.00 1.55 1.55 99 1015.4
20260905225832 22 94 0.0 0.0 0.00 1.55 1.55 99 1015.4
20260905225327 22 162 1.6 1.6 0.00 1.55 1.55 99 1015.3
20260905224822 22 142 0.0 0.0 0.00 1.55 1.55 99 1015.4
20260905224317 22 237 1.6 1.6 0.00 1.55 1.55 99 1015.1
20260905223812 22 160 1.6 1.6 0.00 1.55 1.55 99 1015.3
20260905223310 22 157 0.0 0.0 0.00 1.55 1.55 99 1015.0
20260905222805 22 166 3.2 3.2 0.00 1.55 1.55 99 1015.2
20260905222306 22 159 1.6 1.6 0.00 1.55 1.55 99 1015.2
20260905221800 22 150 0.0 0.0 0.00 1.55 1.55 99 1015.3
20260905221256 22 155 0.0 0.0 0.00 1.55 1.55 99 1015.4
20260905220752 21 138 3.2 3.2 0.00 1.55 1.55 99 1015.2
20260905220248 21 127 1.6 3.2 0.00 1.55 1.55 99 1015.5
20260905215747 21 178 4.8 4.8 0.00 1.55 1.55 99 1015.5
20260905215243 21 124 0.0 1.6 0.00 1.55 1.55 99 1015.6
20260905214739 21 172 0.0 1.6 0.00 1.55 1.55 99 1015.5
20260905214234 21 164 3.2 4.8 0.00 1.55 1.55 99 1015.4
20260905213729 21 160 3.2 3.2 0.00 1.55 1.55 99 1015.6
20260905213226 21 166 3.2 3.2 0.00 1.55 1.55 99 1015.6
20260905212721 21 176 4.8 4.8 0.00 1.55 1.55 99 1015.7
20260905212220 21 158 1.6 3.2 0.00 1.55 1.55 99 1015.9
20260905211719 22 152 3.2 4.8 0.00 1.55 1.55 99 1015.8
20260905211215 22 181 0.0 0.0 0.00 1.55 1.55 99 1015.7
20260905210711 22 130 0.0 0.0 0.00 1.55 1.55 99 1015.9
20260905210206 22 119 0.0 0.0 0.00 1.55 1.55 99 1016.3
20260905205705 22 152 0.0 0.0 0.00 1.55 1.55 99 1015.9
20260905205204 22 152 0.0 1.6 0.00 1.55 1.55 99 1015.9
20260905204659 22 123 0.0 0.0 0.00 1.55 1.55 99 1016.0
20260905204154 21 121 0.0 0.0 0.00 1.55 1.55 99 1016.4
20260905203649 21 139 1.6 1.6 0.00 1.55 1.55 99 1016.2
20260905203144 21 152 0.0 0.0 0.00 1.55 1.55 99 1015.9
20260905202639 21 162 1.6 1.6 0.00 1.55 1.55 99 1016.0
20260905202129 22 153 3.2 3.2 0.00 1.55 1.55 99 1016.4
20260905201624 22 153 0.0 1.6 0.00 1.55 1.55 99 1016.2
20260905201124 21 274 1.6 1.6 0.00 1.55 1.55 99 1016.0
20260905200620 21 321 3.2 3.2 1.80 1.55 1.55 99 1015.9
20260905200114 22 112 0.0 1.6 1.98 1.55 1.55 99 1015.7
20260905195607 22 179 6.4 8.0 0.30 1.27 1.27 99 1016.2
20260905195103 23 123 3.2 3.2 0.00 1.22 1.22 99 1016.2
20260905194603 22 21 3.2 4.8 0.00 1.22 1.22 99 1016.2
20260905194102 22 194 4.8 4.8 0.00 1.22 1.22 99 1016.0
20260905193557 22 187 4.8 8.0 0.00 1.22 1.22 99 1016.2
20260905193052 23 107 1.6 3.2 0.00 1.22 1.22 99 1016.4
20260905192547 23 137 4.8 8.0 0.00 1.22 1.22 99 1016.6
20260905192044 23 127 8.0 9.7 0.00 1.22 1.22 99 1016.3
20260905191542 23 199 3.2 8.0 0.00 1.22 1.22 99 1016.4
20260905191036 22 181 4.8 8.0 0.00 1.22 1.22 99 1016.5
20260905190533 22 183 3.2 4.8 0.00 1.22 1.22 99 1016.3
20260905190028 23 125 0.0 1.6 1.50 1.22 1.22 99 1016.4
20260905185527 22 88 3.2 3.2 2.29 1.22 1.22 95 1016.6
20260905185026 23 182 3.2 3.2 1.32 1.04 1.04 99 1016.5
20260905184521 23 178 3.2 3.2 0.13 0.84 0.84 99 1016.3
20260905184020 23 156 0.0 1.6 0.18 0.81 0.81 99 1016.2
20260905183519 23 109 0.0 0.0 0.97 0.81 0.81 99 1015.8
20260905183015 23 131 1.6 1.6 4.14 0.79 0.79 99 1016.3
20260905182509 24 106 0.0 0.0 4.27 0.71 0.71 98 1015.9
20260905182004 27 178 1.6 3.2 1.07 0.18 0.18 89 1015.9
20260905181459 30 157 1.6 1.6 0.00 0.00 0.00 76 1015.7
20260905180957 32 94 4.8 8.0 0.00 0.00 0.00 67 1015.6
20260905180452 32 58 1.6 1.6 0.00 0.00 0.00 64 1015.5
20260905175948 32 310 3.2 3.2 0.00 0.00 0.00 68 1015.8
20260905175447 31 78 1.6 3.2 0.00 0.00 0.00 69 1016.2
20260905174943 31 27 4.8 8.0 0.00 0.00 0.00 66 1016.3
20260905174438 31 278 3.2 3.2 0.00 0.00 0.00 66 1016.6
20260905173933 31 48 4.8 4.8 0.00 0.00 0.00 69 1016.6
20260905173430 31 44 1.6 3.2 0.00 0.00 0.00 71 1016.6
20260905172925 31 239 3.2 4.8 0.00 0.00 0.00 67 1016.6
20260905172423 30 240 1.6 1.6 0.00 0.00 0.00 68 1016.6
20260905171919 30 274 8.0 8.0 0.00 0.00 0.00 69 1016.6
20260905171415 30 69 1.6 1.6 0.00 0.00 0.00 71 1016.6
20260905170911 30 165 1.6 1.6 0.00 0.00 0.00 70 1016.6
20260905170407 30 164 3.2 3.2 0.00 0.00 0.00 69 1016.9
20260905165906 30 271 4.8 4.8 0.00 0.00 0.00 72 1016.7
20260905165402 30 156 0.0 0.0 0.00 0.00 0.00 75 1016.8
20260905164856 29 281 0.0 1.6 0.00 0.00 0.00 76 1016.9
20260905164351 30 269 4.8 4.8 0.00 0.00 0.00 75 1017.1
20260905163846 29 277 1.6 3.2 0.00 0.00 0.00 77 1017.3
20260905163343 29 3 1.6 1.6 0.00 0.00 0.00 81 1017.5
20260905162839 28 246 0.0 0.0 0.00 0.00 0.00 83 1017.8
20260905162338 28 267 3.2 3.2 0.00 0.00 0.00 80 1017.4
20260905161833 28 287 1.6 1.6 0.00 0.00 0.00 80 1017.5
20260905161332 27 19 3.2 3.2 0.00 0.00 0.00 86 1017.4
20260905160830 27 339 4.8 4.8 0.00 0.00 0.00 81 1017.4
20260905160325 27 23 1.6 1.6 0.00 0.00 0.00 85 1017.2
20260905155820 26 279 1.6 1.6 0.00 0.00 0.00 83 1017.3
20260905155319 26 280 3.2 3.2 0.00 0.00 0.00 84 1017.4
20260905154813 26 230 1.6 1.6 0.00 0.00 0.00 86 1017.6
20260905154309 26 291 0.0 0.0 0.00 0.00 0.00 90 1017.5
20260905153804 25 63 0.0 0.0 0.00 0.00 0.00 90 1017.4
20260905153300 25 58 3.2 3.2 0.00 0.00 0.00 93 1017.4
20260905152754 25 52 1.6 1.6 0.00 0.00 0.00 93 1017.8
20260905152254 24 83 0.0 0.0 0.00 0.00 0.00 95 1017.5
20260905151754 23 160 0.0 0.0 0.00 0.00 0.00 95 1017.8
20260905151249 23 134 0.0 0.0 0.00 0.00 0.00 96 1017.9
20260905150744 23 305 1.6 1.6 0.00 0.00 0.00 97 1018.2
20260905150244 23 276 1.6 3.2 0.00 0.00 0.00 98 1018.2
20260905145741 23 145 0.0 0.0 0.00 0.00 0.00 98 1018.2
20260905145236 22 275 3.2 4.8 0.00 0.00 0.00 99 1018.4
20260905144735 22 228 0.0 0.0 0.00 0.00 0.00 99 1018.1
20260905144230 22 277 4.8 4.8 0.00 0.00 0.00 99 1018.1
20260905143730 21 80 1.6 1.6 0.00 0.00 0.00 99 1018.2
20260905143229 21 45 1.6 1.6 0.00 0.00 0.00 99 1018.2
20260905142727 21 89 1.6 1.6 0.00 0.00 0.00 99 1018.3
20260905142222 21 325 1.6 1.6 0.00 0.00 0.00 99 1018.2
20260905141718 21 77 0.0 0.0 0.00 0.00 0.00 99 1018.3
20260905141214 21 64 0.0 0.0 0.00 0.00 0.00 99 1018.4
20260905140709 21 280 0.0 0.0 0.00 0.00 0.00 99 1018.5
20260905140203 20 319 1.6 3.2 0.00 0.00 0.00 99 1018.6
20260905135657 20 295 1.6 1.6 0.00 0.00 0.00 99 1018.7
20260905135153 20 52 1.6 1.6 0.00 0.00 0.00 99 1018.5
20260905134647 20 139 0.0 0.0 0.00 0.00 0.00 99 1018.6
20260905134146 20 236 0.0 0.0 0.00 0.00 0.00 99 1018.9
20260905133641 20 275 0.0 1.6 0.00 0.00 0.00 99 1018.6
20260905133136 20 172 0.0 0.0 0.00 0.00 0.00 99 1018.7
20260905132635 20 86 0.0 0.0 0.00 0.00 0.00 99 1019.0
20260905132131 20 86 0.0 0.0 0.00 0.00 0.00 99 1018.7
20260905131626 20 87 0.0 0.0 0.00 0.00 0.00 99 1018.7
20260905131121 20 134 0.0 0.0 0.00 0.00 0.00 99 1018.9
20260905130615 20 87 0.0 0.0 0.00 0.00 0.00 99 1018.9
20260905130115 20 87 0.0 0.0 0.00 0.00 0.00 99 1019.0
20260905125609 20 108 0.0 0.0 0.00 0.00 0.00 99 1018.7
20260905125105 20 99 0.0 0.0 0.00 0.00 0.00 99 1018.6
20260905124601 20 92 0.0 0.0 0.00 0.00 0.00 99 1018.5
20260905124057 20 126 0.0 0.0 0.00 0.00 0.00 99 1018.7
20260905123551 20 126 0.0 0.0 0.00 0.00 0.00 99 1018.7
20260905123048 20 126 0.0 0.0 0.00 0.00 0.00 99 1018.5
20260905122543 20 124 0.0 0.0 0.00 0.00 0.00 99 1018.8
20260905122038 19 125 0.0 0.0 0.00 0.00 0.00 99 1018.7
20260905121538 19 125 0.0 0.0 0.00 0.00 0.00 99 1018.5
20260905121033 19 125 0.0 0.0 0.00 0.00 0.00 99 1018.7
20260905120527 19 118 0.0 0.0 0.00 0.00 0.00 99 1018.4
20260905120022 18 107 0.0 0.0 0.00 0.00 0.00 99 1018.4
20260905115521 19 114 0.0 0.0 0.00 0.00 0.00 99 1018.2
20260905115016 18 114 0.0 0.0 0.00 0.00 0.00 99 1018.2
20260905114515 18 135 0.0 0.0 0.00 0.00 0.00 99 1018.3
20260905114014 19 136 0.0 0.0 0.00 0.00 0.00 99 1017.8
20260905113510 19 144 0.0 0.0 0.00 0.00 0.00 99 1018.3
20260905113005 19 144 0.0 0.0 0.00 0.00 0.00 99 1018.1
20260905112500 18 144 0.0 0.0 0.00 0.00 0.00 99 1017.9
20260905111955 18 145 0.0 0.0 0.00 0.00 0.00 99 1018.1
20260905111449 18 144 0.0 0.0 0.00 0.00 0.00 99 1018.0
20260905110943 18 136 0.0 0.0 0.00 0.00 0.00 99 1017.6
20260905110442 18 137 0.0 0.0 0.00 0.00 0.00 99 1017.6
20260905105937 18 125 0.0 0.0 0.00 0.00 0.00 99 1017.8
20260905105432 18 124 0.0 0.0 0.00 0.00 0.00 99 1017.5
20260905104931 18 130 0.0 0.0 0.00 0.00 0.00 99 1017.6
20260905104427 18 130 0.0 0.0 0.00 0.00 0.00 99 1017.6